Time,TemperatureF,DewpointF,PressureIn,WindDirection,WindDirectionDegrees,WindSpeedMPH,WindSpeedGustMPH,Humidity,HourlyPrecipIn,Conditions,Clouds,dailyrainin,SoftwareType,DateUTC
2013-07-20 03:15:00,70.5,63.3,-100.00,NE,45,2.0,-999.0,78,-99.99,,,0.00,meteohub,2013-07-20 00:15:00,
2013-07-20 03:16:00,70.5,63.3,-100.00,NNE,22,1.0,-999.0,78,-99.99,,,0.00,meteohub,2013-07-20 00:16:00,
2013-07-20 03:21:00,70.5,63.3,-100.00,NE,45,1.0,3.0,78,0.00,,,0.00,meteohub,2013-07-20 00:21:00,
2013-07-20 03:26:00,70.5,63.3,-100.00,NE,45,3.0,4.0,78,0.00,,,0.00,meteohub,2013-07-20 00:26:00,
2013-07-20 03:31:00,70.5,63.3,-100.00,NE,45,1.0,4.0,78,0.00,,,0.00,meteohub,2013-07-20 00:31:00,
2013-07-20 03:36:00,70.3,63.1,-100.00,NE,45,2.0,4.0,78,0.00,,,0.00,meteohub,2013-07-20 00:36:00,
2013-07-20 03:42:00,70.3,63.1,-100.00,NE,45,2.0,3.0,78,0.00,,,0.00,meteohub,2013-07-20 00:42:00,
2013-07-20 03:47:00,70.3,63.1,-100.00,NE,45,1.0,3.0,78,0.00,,,0.00,meteohub,2013-07-20 00:47:00,
2013-07-20 03:52:00,70.3,63.5,-100.00,NE,45,3.0,3.0,79,0.00,,,0.00,meteohub,2013-07-20 00:52:00,
2013-07-20 03:57:00,70.3,63.5,-100.00,East,90,3.0,4.0,79,0.00,,,0.00,meteohub,2013-07-20 00:57:00,
2013-07-20 04:02:00,70.5,63.7,-100.00,NE,45,2.0,4.0,79,0.00,,,0.00,meteohub,2013-07-20 01:02:00,
2013-07-20 04:07:00,70.5,63.7,-100.00,NE,45,0.0,4.0,79,0.00,,,0.00,meteohub,2013-07-20 01:07:00,
2013-07-20 04:12:00,70.5,64.0,-100.00,NE,45,2.0,4.0,80,0.00,,,0.00,meteohub,2013-07-20 01:12:00,
2013-07-20 04:17:00,70.7,64.2,-100.00,NE,45,3.0,5.0,80,0.00,,,0.00,meteohub,2013-07-20 01:17:00,
2013-07-20 04:22:00,70.7,64.2,-100.00,NE,45,3.0,5.0,80,0.00,,,0.00,meteohub,2013-07-20 01:22:00,
2013-07-20 04:27:00,70.7,64.2,-100.00,NE,45,6.0,6.0,80,0.00,,,0.00,meteohub,2013-07-20 01:27:00,
2013-07-20 04:32:00,70.7,64.6,-100.00,East,90,3.0,6.0,81,0.00,,,0.00,meteohub,2013-07-20 01:32:00,
2013-07-20 04:37:00,70.7,64.6,-100.00,North,0,3.0,6.0,81,0.00,,,0.00,meteohub,2013-07-20 01:37:00,
2013-07-20 04:43:00,70.7,64.6,-100.00,East,90,4.0,6.0,81,0.00,,,0.00,meteohub,2013-07-20 01:43:00,
2013-07-20 04:48:00,70.7,64.2,-100.00,NE,45,6.0,6.0,80,0.00,,,0.00,meteohub,2013-07-20 01:48:00,
2013-07-20 04:53:00,70.7,64.2,-100.00,NE,45,3.0,6.0,80,0.00,,,0.00,meteohub,2013-07-20 01:53:00,
2013-07-20 04:58:00,70.5,64.0,-100.00,NE,45,1.0,6.0,80,0.00,,,0.00,meteohub,2013-07-20 01:58:00,
2013-07-20 05:03:00,70.5,64.0,-100.00,ENE,68,3.0,6.0,80,0.00,,,0.00,meteohub,2013-07-20 02:03:00,
2013-07-20 05:08:00,70.5,64.0,-100.00,NE,45,2.0,4.0,80,0.00,,,0.00,meteohub,2013-07-20 02:08:00,
2013-07-20 05:13:00,70.5,64.0,-100.00,NE,45,1.0,4.0,80,0.00,,,0.00,meteohub,2013-07-20 02:13:00,
2013-07-20 05:18:00,70.5,64.0,-100.00,NE,45,1.0,4.0,80,0.00,,,0.00,meteohub,2013-07-20 02:18:00,
2013-07-20 05:23:00,70.5,64.0,-100.00,NE,45,0.0,4.0,80,0.00,,,0.00,meteohub,2013-07-20 02:23:00,
2013-07-20 05:28:00,70.5,64.0,-100.00,East,90,1.0,4.0,80,0.00,,,0.00,meteohub,2013-07-20 02:28:00,
2013-07-20 05:34:00,70.5,64.0,-100.00,NE,45,2.0,4.0,80,0.00,,,0.00,meteohub,2013-07-20 02:34:00,
2013-07-20 05:39:00,70.5,64.0,-100.00,NE,45,1.0,4.0,80,0.00,,,0.00,meteohub,2013-07-20 02:39:00,
2013-07-20 05:44:00,70.5,64.0,-100.00,NE,45,1.0,4.0,80,0.00,,,0.00,meteohub,2013-07-20 02:44:00,
2013-07-20 05:49:00,70.5,64.0,-100.00,East,90,4.0,4.0,80,0.00,,,0.00,meteohub,2013-07-20 02:49:00,
2013-07-20 05:54:00,70.5,64.0,-100.00,North,0,2.0,4.0,80,0.00,,,0.00,meteohub,2013-07-20 02:54:00,
2013-07-20 05:59:00,70.3,63.9,-100.00,NE,45,1.0,4.0,80,0.00,,,0.00,meteohub,2013-07-20 02:59:00,
2013-07-20 06:04:00,70.3,63.9,-100.00,NE,45,3.0,4.0,80,0.00,,,0.00,meteohub,2013-07-20 03:04:00,
2013-07-20 06:09:00,70.3,63.9,-100.00,NE,45,1.0,5.0,80,0.00,,,0.00,meteohub,2013-07-20 03:09:00,
2013-07-20 06:14:00,70.3,63.9,-100.00,NE,45,2.0,5.0,80,0.00,,,0.00,meteohub,2013-07-20 03:14:00,
2013-07-20 06:19:00,70.3,63.9,-100.00,NE,45,1.0,5.0,80,0.00,,,0.00,meteohub,2013-07-20 03:19:00,
2013-07-20 06:24:00,70.3,63.9,-100.00,NE,45,1.0,4.0,80,0.00,,,0.00,meteohub,2013-07-20 03:24:00,
2013-07-20 06:29:00,70.3,63.9,-100.00,NE,45,2.0,4.0,80,0.00,,,0.00,meteohub,2013-07-20 03:29:00,
2013-07-20 06:35:00,70.5,64.0,-100.00,NE,45,1.0,4.0,80,0.00,,,0.00,meteohub,2013-07-20 03:35:00,
2013-07-20 06:40:00,70.5,64.4,-100.00,NE,45,4.0,4.0,81,0.00,,,0.00,meteohub,2013-07-20 03:40:00,
2013-07-20 06:45:00,70.5,64.4,-100.00,NE,45,4.0,5.0,81,0.00,,,0.00,meteohub,2013-07-20 03:45:00,
2013-07-20 06:50:00,70.5,64.4,-100.00,NE,45,1.0,5.0,81,0.00,,,0.00,meteohub,2013-07-20 03:50:00,
2013-07-20 06:55:00,70.7,64.6,-100.00,NNE,22,2.0,4.0,81,0.00,,,0.00,meteohub,2013-07-20 03:55:00,
2013-07-20 07:00:00,70.7,64.6,-100.00,NE,45,2.0,4.0,81,0.00,,,0.00,meteohub,2013-07-20 04:00:00,
2013-07-20 07:01:00,70.7,64.6,-100.00,NE,45,0.0,4.0,81,0.00,,,0.00,meteohub,2013-07-20 04:01:00,
2013-07-20 07:02:00,70.7,64.6,-100.00,NE,45,0.0,4.0,81,0.00,,,0.00,meteohub,2013-07-20 04:02:00,
2013-07-20 07:03:00,70.7,64.6,-100.00,NE,45,1.0,4.0,81,0.00,,,0.00,meteohub,2013-07-20 04:03:00,
2013-07-20 07:08:00,70.9,64.8,-100.00,NNE,22,0.0,4.0,81,0.00,,,0.00,meteohub,2013-07-20 04:08:00,
2013-07-20 07:13:00,70.9,64.8,-100.00,NE,45,1.0,4.0,81,0.00,,,0.00,meteohub,2013-07-20 04:13:00,
2013-07-20 07:16:00,71.1,64.9,-100.00,East,90,3.0,5.0,81,0.00,,,0.00,meteohub,2013-07-20 04:16:00,
2013-07-20 07:21:00,71.1,64.9,-100.00,East,90,1.0,5.0,81,0.00,,,0.00,meteohub,2013-07-20 04:21:00,
2013-07-20 07:26:00,71.2,65.1,-100.00,NE,45,1.0,5.0,81,0.00,,,0.00,meteohub,2013-07-20 04:26:00,
2013-07-20 07:31:00,71.2,64.8,-100.00,NE,45,1.0,4.0,80,0.00,,,0.00,meteohub,2013-07-20 04:31:00,
2013-07-20 07:36:00,71.4,64.9,-100.00,North,0,0.0,4.0,80,0.00,,,0.00,meteohub,2013-07-20 04:36:00,
2013-07-20 07:42:00,71.6,65.1,-100.00,North,0,0.0,4.0,80,0.00,,,0.00,meteohub,2013-07-20 04:42:00,
2013-07-20 07:47:00,71.6,65.1,-100.00,NW,315,0.0,3.0,80,0.00,,,0.00,meteohub,2013-07-20 04:47:00,
2013-07-20 07:52:00,71.8,65.3,-100.00,East,90,0.0,0.0,80,0.00,,,0.00,meteohub,2013-07-20 04:52:00,
2013-07-20 07:57:00,72.0,65.1,-100.00,East,90,0.0,0.0,79,0.00,,,0.00,meteohub,2013-07-20 04:57:00,
2013-07-20 08:02:00,72.0,65.1,-100.00,ENE,68,2.0,3.0,79,0.00,,,0.00,meteohub,2013-07-20 05:02:00,
2013-07-20 08:07:00,72.1,65.3,-100.00,SE,135,1.0,3.0,79,0.00,,,0.00,meteohub,2013-07-20 05:07:00,
2013-07-20 08:12:00,72.3,65.5,-100.00,NE,45,1.0,4.0,79,0.00,,,0.00,meteohub,2013-07-20 05:12:00,
2013-07-20 08:17:00,72.5,65.3,-100.00,East,90,2.0,4.0,78,0.00,,,0.00,meteohub,2013-07-20 05:17:00,
2013-07-20 08:22:00,72.7,65.1,-100.00,SE,135,0.0,6.0,77,0.00,,,0.00,meteohub,2013-07-20 05:22:00,
2013-07-20 08:27:00,72.9,65.3,-100.00,NE,45,1.0,6.0,77,0.00,,,0.00,meteohub,2013-07-20 05:27:00,
2013-07-20 08:32:00,73.0,64.6,-100.00,East,90,3.0,6.0,75,0.00,,,0.00,meteohub,2013-07-20 05:32:00,
2013-07-20 08:38:00,73.2,64.4,-100.00,North,0,0.0,6.0,74,0.00,,,0.00,meteohub,2013-07-20 05:38:00,
2013-07-20 08:43:00,73.6,63.7,-100.00,NE,45,2.0,4.0,71,0.00,,,0.00,meteohub,2013-07-20 05:43:00,
2013-07-20 08:48:00,73.8,63.3,-100.00,North,0,0.0,3.0,70,0.00,,,0.00,meteohub,2013-07-20 05:48:00,
2013-07-20 08:53:00,73.9,63.1,-100.00,NE,45,3.0,5.0,69,0.00,,,0.00,meteohub,2013-07-20 05:53:00,
2013-07-20 08:58:00,74.5,63.1,-100.00,NE,45,3.0,5.0,68,0.00,,,0.00,meteohub,2013-07-20 05:58:00,
2013-07-20 09:03:00,75.0,63.3,-100.00,East,90,4.0,8.0,67,0.00,,,0.00,meteohub,2013-07-20 06:03:00,